GFSNW_sfc_rhum_243.txt.gz
RH
90 89 88 89 90 81 82 87 66 67 66 59 70 63 53 58 52 53 54 53 56 56 54 62 56 53 50 57 60 64 76 73 85 64 54 59 74 76 67 88 83 96 98 78
92 91 89 88 88 78 88 89 85 69 59 77 66 61 54 55 54 52 50 54 54 54 55 75 55 53 59 58 62 58 59 70 83 65 67 60 67 60 60 66 89 95 96 79
95 94 91 88 88 77 83 82 81 77 70 70 55 50 56 58 59 54 52 54 53 58 61 58 64 58 60 62 60 63 58 72 65 75 66 68 71 63 61 61 92 86 80 66
94 95 94 90 89 76 87 94 81 78 85 71 69 73 54 55 61 59 55 59 56 55 70 65 65 59 57 67 71 75 64 76 84 71 74 69 64 65 64 71 65 82 62 66
95 96 96 92 91 80 92 93 82 69 60 59 74 75 74 60 50 53 57 60 59 56 57 62 76 60 60 68 69 59 57 80 73 77 65 67 69 63 70 64 62 63 58 60
96 97 98 95 92 86 97 90 66 91 84 76 83 86 77 64 49 54 52 51 52 55 54 54 53 50 51 56 51 52 53 69 69 89 73 72 75 68 67 74 79 83 90 76
88 92 98 97 94 89 96 92 84 95 96 91 79 80 62 55 49 66 61 54 50 59 57 60 60 62 64 67 64 50 57 61 70 93 84 85 69 65 65 64 76 76 66 62
92 91 96 98 96 90 96 92 94 95 98 92 88 72 62 69 74 78 63 60 63 60 62 83 82 82 64 74 75 77 61 65 84 94 98 72 78 61 62 70 72 65 67 64
97 96 94 96 97 93 94 92 93 96 98 96 83 88 77 90 92 86 74 69 68 67 65 65 94 90 81 85 83 73 69 74 78 96 96 92 75 60 53 57 85 70 66 69
94 98 98 97 97 96 96 97 91 97 100 95 85 93 90 86 90 92 80 77 82 59 69 78 82 90 80 86 88 89 89 91 92 89 96 86 69 56 52 84 76 63 63 70
94 94 96 97 98 98 97 99 98 97 99 99 92 88 92 95 92 95 86 83 76 74 85 86 86 87 86 87 81 82 81 92 97 95 98 93 58 57 64 69 60 64 67 71
94 93 93 95 96 98 93 99 99 97 98 100 96 96 91 89 91 91 91 87 73 73 87 94 89 88 92 88 93 80 86 75 88 82 76 60 63 67 59 57 64 70 73 70
92 92 94 97 95 94 91 99 99 98 100 100 99 98 91 81 81 78 93 91 74 73 90 80 87 94 88 94 97 90 71 68 71 76 78 69 67 65 60 66 73 69 68 72
91 90 91 96 95 92 90 98 99 97 98 100 94 71 69 58 73 85 84 84 86 88 90 95 96 95 81 96 89 86 69 63 68 72 77 80 78 77 74 72 68 70 70 73
86 89 91 94 96 94 96 98 99 96 94 99 96 66 58 65 73 80 81 82 89 98 99 99 96 91 85 92 89 95 67 71 70 83 77 76 80 77 69 75 75 75 80 80
84 86 85 90 96 92 96 98 97 89 90 96 99 73 76 88 90 91 94 95 97 97 93 95 94 85 83 94 95 74 81 78 76 78 82 77 78 72 75 78 75 76 82 81
84 85 87 96 94 97 95 96 92 87 88 92 98 95 72 69 91 97 98 97 99 96 96 97 92 81 86 96 98 80 83 76 77 77 79 78 73 82 78 76 76 75 77 81
84 85 87 94 88 87 93 84 68 77 92 96 98 97 89 71 93 94 96 95 94 96 93 91 83 81 94 98 83 86 81 80 80 78 76 78 78 80 79 75 76 79 82 84
90 90 85 90 94 96 96 75 72 82 89 100 98 94 94 76 90 90 84 83 95 87 98 89 79 86 96 82 87 87 82 80 79 78 82 84 86 85 79 80 81 91 88 85
86 90 93 98 99 80 78 91 98 100 99 98 97 89 94 88 94 94 91 95 97 99 89 89 98 89 84 84 88 81 79 78 75 90 91 88 87 84 88 87 88 89 89 89
96 99 99 99 83 96 97 98 98 98 98 97 92 84 95 81 92 91 83 96 97 100 87 92 97 95 93 89 92 83 82 82 82 80 81 88 91 96 96 91 85 86 87 92
92 97 98 99 99 98 97 98 96 97 96 98 94 91 90 95 88 94 98 96 97 98 90 98 97 90 95 94 89 87 86 84 85 83 86 88 81 90 96 95 95 94 91 91
96 96 98 98 98 97 97 97 96 98 95 97 97 97 95 97 91 97 96 96 96 90 98 94 91 97 94 95 90 91 90 88 81 81 81 84 90 83 90 97 92 96 97 95
100 97 97 97 99 98 94 93 91 89 95 94 94 100 94 98 95 97 90 94 90 99 100 91 97 98 97 95 93 92 96 91 91 96 95 95 93 94 90 94 98 99 98 95
99 98 97 97 96 99 99 98 98 99 89 92 94 95 92 98 97 95 93 97 99 94 87 94 98 99 99 99 98 98 98 98 98 98 100 100 99 98 98 96 96 97 97 97
98 97 98 92 96 98 98 99 100 98 92 93 92 94 89 93 93 97 91 89 84 84 97 98 99 100 99 99 98 99 100 100 100 100 100 99 100 100 100 99 96 98 98 98
96 98 98 96 97 97 98 98 98 95 90 89 92 76 74 94 96 91 92 87 92 98 99 98 98 97 98 99 99 99 100 100 100 100 100 100 99 100 100 100 98 99 98 99

GFSNW_sfc_rhum_246.txt.gz
RH
89 90 90 90 90 83 82 85 64 72 73 60 72 63 57 58 55 55 56 54 56 58 54 73 62 54 50 58 56 65 77 74 85 65 60 61 72 77 70 89 80 96 98 75
92 92 91 90 90 80 90 89 86 72 66 73 71 64 56 56 55 54 53 58 55 56 61 78 61 55 61 59 58 56 60 74 86 71 70 67 70 61 61 76 90 95 92 76
93 95 93 90 89 80 83 82 78 77 71 73 58 58 61 59 59 55 54 56 54 59 71 61 71 60 62 62 58 60 56 72 69 84 74 69 68 65 63 65 93 85 80 66
93 95 95 91 89 82 84 93 84 82 85 75 73 72 57 59 64 59 56 62 59 59 78 73 65 61 52 63 68 67 66 70 79 71 73 73 69 69 70 77 71 86 66 75
94 95 97 93 92 83 91 91 81 73 64 62 78 79 74 61 57 56 60 61 59 58 61 61 74 59 63 66 63 64 61 80 67 81 69 67 69 63 73 68 68 75 68 69
95 95 98 97 92 87 96 90 69 90 86 78 87 87 80 69 55 57 58 57 59 63 55 52 52 50 54 60 55 60 58 72 76 89 75 74 74 69 66 68 71 72 79 76
93 94 96 99 95 89 96 91 88 95 93 93 85 86 77 70 55 66 56 53 52 54 56 63 66 66 64 70 70 56 61 61 70 93 84 87 64 71 67 73 67 83 74 68
96 94 92 94 97 90 95 94 94 95 95 94 92 84 72 66 73 70 57 58 60 60 62 85 88 87 73 78 75 72 63 63 89 93 97 72 79 64 66 72 66 71 77 68
95 94 92 92 96 94 95 95 94 96 97 95 85 91 77 88 88 87 74 69 67 69 68 79 99 94 83 86 86 72 69 71 82 96 98 90 72 61 56 62 86 69 66 67
98 97 96 93 93 97 96 97 89 95 100 93 85 92 89 83 91 93 81 78 81 62 78 97 95 89 81 88 87 91 87 91 92 93 97 83 74 55 59 84 77 63 63 67
94 94 97 98 96 98 97 98 95 94 100 98 91 86 91 94 92 95 86 85 84 83 98 99 94 88 86 87 82 83 81 91 98 95 100 95 58 59 66 72 72 78 70 74
95 93 92 94 95 98 96 100 99 96 99 100 97 97 93 92 96 91 89 93 78 81 91 96 86 87 92 88 86 80 80 68 82 77 75 62 69 78 65 62 64 71 76 72
93 93 93 96 95 97 95 99 99 97 100 100 99 98 90 84 92 91 95 97 86 82 90 96 98 98 80 95 97 89 74 68 74 76 80 75 73 68 64 66 78 73 72 74
91 91 92 95 95 93 92 98 99 97 98 100 97 80 81 76 86 93 94 92 94 92 93 100 99 98 85 96 90 88 74 64 72 81 76 82 78 78 77 76 71 73 74 76
90 92 93 94 96 94 96 99 99 98 96 99 97 80 68 77 88 93 93 91 93 99 99 99 98 95 82 91 92 98 63 66 74 87 76 78 80 80 74 78 78 78 82 83
86 85 86 92 96 94 97 99 99 96 95 97 100 81 76 90 90 92 95 94 96 98 98 96 97 90 89 96 98 77 76 79 76 76 83 80 80 77 80 81 77 77 82 80
83 85 88 98 95 97 97 97 93 92 97 95 98 96 73 69 92 98 99 99 99 98 98 97 96 88 87 97 98 75 81 79 80 82 78 82 77 84 83 77 75 73 75 81
84 87 93 90 92 92 95 93 85 91 95 97 98 98 89 72 93 96 97 96 96 97 96 94 87 85 96 98 82 84 84 82 83 82 78 80 82 79 76 72 75 80 84 86
91 88 84 89 94 96 98 84 80 89 93 100 98 95 94 78 95 94 85 84 92 88 99 90 80 89 98 83 82 87 85 82 82 80 82 83 84 81 80 81 84 92 90 89
86 88 91 99 99 80 86 94 99 100 100 99 98 88 94 87 94 94 90 93 91 98 89 87 98 92 84 82 86 82 79 77 76 92 93 88 84 82 90 89 90 90 92 91
94 99 99 99 88 96 98 99 99 98 98 98 95 87 95 81 95 95 95 97 96 99 88 94 97 96 91 87 90 82 80 80 82 79 80 84 91 96 96 91 86 87 89 94
92 94 98 99 98 98 98 98 97 98 96 98 95 90 90 97 96 97 97 96 97 97 90 99 98 89 93 93 88 86 84 82 83 82 84 86 83 91 96 95 96 95 93 92
94 95 95 97 98 98 97 97 97 99 95 98 97 98 96 97 90 97 96 96 96 92 98 93 90 94 94 94 89 92 89 84 80 81 81 83 90 85 92 97 94 96 97 95
99 95 99 95 98 97 95 95 95 94 95 94 94 99 95 97 95 97 92 95 90 99 100 90 96 98 98 96 92 93 96 90 90 96 94 95 93 94 91 95 98 100 98 95
99 97 96 99 97 98 98 98 98 99 95 94 94 95 92 97 97 95 93 98 98 94 89 94 97 99 98 99 98 97 97 97 97 98 100 100 100 99 98 97 97 97 97 97
96 96 96 93 96 98 99 99 100 98 94 94 91 93 90 91 94 96 91 91 89 86 96 98 99 99 99 98 98 98 99 100 100 100 100 100 100 100 100 99 98 99 98 98
96 98 96 96 97 98 98 98 97 94 90 91 92 81 78 94 96 95 93 88 91 97 98 95 96 96 96 98 98 99 100 100 100 100 100 100 100 100 100 100 98 100 98 98

GFSNW_sfc_rhum_249.txt.gz
RH
88 89 91 91 91 84 82 84 64 74 72 59 73 63 56 57 56 56 57 53 56 61 57 75 64 57 53 59 55 61 71 69 80 62 59 59 64 65 65 77 75 89 89 72
90 90 91 91 90 80 90 87 87 76 67 70 70 67 59 56 56 54 55 59 56 56 64 79 66 57 62 59 57 58 61 74 88 73 65 60 63 59 61 74 82 88 86 63
92 94 93 92 89 82 84 82 75 78 73 77 67 64 61 62 58 56 53 57 54 62 74 64 75 63 63 64 60 56 51 66 67 84 77 62 66 64 60 63 87 78 71 56
92 94 94 93 90 83 84 92 86 85 85 78 72 72 66 63 64 60 56 63 60 61 78 77 70 61 54 63 66 64 58 71 72 63 63 62 67 69 71 70 66 83 62 72
92 93 96 94 92 83 90 89 81 76 70 68 80 81 68 63 62 58 64 61 62 60 71 72 78 57 60 70 71 65 62 86 70 89 73 70 70 60 72 70 70 77 72 72
93 94 97 98 93 86 96 91 74 88 86 80 88 86 80 72 57 59 61 58 62 62 56 50 51 53 56 61 58 63 61 77 84 92 75 70 77 66 67 65 66 69 70 62
94 95 97 97 96 89 95 90 90 94 89 92 86 86 80 75 65 69 56 53 53 57 60 63 65 61 61 70 71 59 62 69 86 95 73 86 54 68 60 62 66 71 76 64
94 95 92 94 97 89 96 94 94 95 90 94 92 86 83 75 78 64 55 56 57 60 61 88 94 85 71 76 76 74 66 67 95 97 96 70 70 62 64 64 60 71 72 64
95 95 95 94 95 94 95 95 95 96 94 91 85 91 84 91 89 89 74 70 68 72 79 91 99 96 82 80 82 71 66 66 87 92 97 84 67 58 54 59 77 64 61 65
96 95 94 93 93 96 96 97 90 96 99 93 85 92 91 84 92 94 83 82 81 64 87 98 97 96 72 94 89 89 82 85 94 92 95 82 67 52 59 74 64 62 62 70
97 98 98 96 93 96 96 98 92 94 100 97 88 83 89 94 92 96 89 89 90 90 99 99 96 97 92 86 81 80 79 86 96 94 100 94 56 56 66 67 75 88 68 66
96 96 94 96 98 95 93 100 98 96 98 100 95 97 94 95 97 91 92 92 88 86 96 99 95 97 94 88 89 79 82 62 73 73 66 58 58 69 66 71 69 65 69 69
94 94 94 96 94 96 96 99 99 97 100 100 99 99 90 82 92 94 94 98 86 84 91 95 99 98 84 96 95 85 71 64 70 69 75 69 66 67 64 63 69 69 71 74
93 93 94 96 95 96 91 98 98 96 97 100 99 84 87 81 88 94 95 92 94 94 96 99 99 98 98 98 89 85 72 65 68 79 72 79 76 74 71 71 72 73 73 74
93 95 95 96 95 93 95 98 99 98 95 98 98 90 79 84 94 95 95 93 95 99 99 99 99 99 98 97 96 98 67 68 71 84 75 72 75 74 70 74 80 77 80 78
92 94 95 97 96 94 99 99 99 98 93 96 99 95 95 97 96 97 97 97 99 100 99 99 99 99 98 97 97 79 72 70 72 72 80 78 77 77 82 79 75 73 74 75
87 90 96 98 95 98 99 99 98 95 97 96 98 96 74 74 99 99 99 99 100 99 99 98 97 93 97 97 99 76 76 79 78 76 76 80 78 84 82 73 72 69 71 77
84 92 95 94 93 94 96 97 94 97 97 98 98 98 94 74 95 98 98 97 97 96 96 96 91 88 97 99 82 81 82 83 83 83 82 81 85 80 74 70 74 76 81 85
91 90 83 90 96 98 99 91 91 96 96 100 97 94 96 85 96 95 94 94 96 88 98 95 84 91 98 83 82 88 86 82 82 81 81 83 83 79 78 78 82 87 87 88
88 88 93 100 99 86 89 95 98 100 100 100 98 89 96 88 95 97 95 94 97 96 89 87 99 92 84 82 86 83 81 78 80 92 93 89 86 80 88 86 87 88 90 91
97 100 99 99 89 96 98 99 100 99 99 98 93 87 96 83 96 96 97 97 96 96 86 96 96 95 94 87 89 82 80 80 82 80 80 83 88 95 94 88 86 88 90 94
93 95 97 99 97 97 97 98 96 98 97 98 95 89 92 97 97 96 97 96 96 94 91 99 98 91 92 91 88 86 81 81 82 80 84 85 82 91 96 94 95 95 93 92
96 98 98 95 97 97 97 98 97 99 96 98 97 98 95 98 97 97 97 96 96 95 99 95 89 93 94 94 87 90 86 82 80 82 81 83 90 85 92 98 94 96 97 95
100 96 97 94 98 96 94 94 95 96 97 95 95 98 95 96 96 96 94 97 92 99 100 90 94 97 97 94 89 92 95 89 90 96 94 94 92 94 92 96 99 100 98 95
99 96 95 100 97 97 98 97 97 98 96 94 94 94 90 96 96 93 92 98 98 93 89 93 97 98 97 98 97 96 96 97 98 97 98 100 100 99 98 97 97 98 97 97
98 96 97 94 96 99 99 98 99 98 94 94 92 91 91 94 93 96 89 89 89 87 97 98 99 98 98 97 96 97 98 99 100 100 100 100 100 100 100 99 98 100 99 98
95 99 96 97 98 97 98 98 96 95 94 96 95 93 86 95 95 97 93 90 92 96 99 97 97 96 96 97 96 96 98 100 100 100 100 100 100 100 100 100 100 100 99 100

GFSNW_sfc_rhum_255.txt.gz
RH
91 89 87 90 91 88 70 62 42 58 48 40 36 41 33 47 36 36 36 35 37 38 41 43 41 36 38 32 33 41 40 48 57 43 38 36 37 36 35 54 56 54 65 58
92 90 87 90 91 82 60 48 47 56 54 42 42 41 40 36 36 35 38 40 39 35 43 50 44 41 37 36 36 43 42 52 65 52 45 40 43 38 37 45 52 71 71 43
93 92 89 90 91 82 60 52 46 53 40 42 35 41 42 47 43 36 35 39 36 40 44 42 49 45 47 38 38 52 49 52 61 67 55 51 59 52 48 53 76 61 53 44
94 92 91 91 92 82 63 49 41 58 52 43 37 40 41 47 49 39 35 42 41 43 50 49 51 46 45 46 54 47 44 64 61 56 55 58 59 60 56 61 62 79 56 50
94 93 92 92 93 83 63 49 48 50 45 46 42 51 46 45 47 42 40 43 41 40 50 46 51 47 46 49 49 53 50 76 73 87 64 63 68 61 59 59 58 56 53 52
96 94 93 94 94 86 61 58 51 56 62 51 50 48 46 47 44 44 42 38 44 45 43 39 39 41 42 46 56 62 64 75 90 88 60 63 73 54 50 51 45 44 47 33
97 95 93 94 95 87 61 52 52 62 63 56 54 58 52 52 47 52 41 41 45 48 40 41 42 44 48 50 50 51 66 79 91 92 73 88 44 37 41 41 37 35 37 35
96 96 94 93 95 93 79 67 70 72 64 51 55 60 57 54 51 48 49 41 40 40 47 62 80 85 68 55 53 58 55 71 94 89 71 52 46 47 46 46 38 28 35 34
95 97 95 93 95 94 83 78 75 74 66 66 44 59 58 64 64 64 59 53 45 50 60 85 99 97 76 66 63 50 58 59 91 89 89 69 42 42 35 37 44 38 39 40
91 98 96 94 95 94 89 82 73 78 81 60 55 64 69 56 61 65 65 64 60 55 70 93 98 96 82 93 78 75 70 76 85 76 88 58 39 37 37 52 47 41 39 53
93 94 97 95 94 94 91 87 80 77 85 76 68 62 67 71 65 75 74 76 84 79 94 97 97 99 85 92 66 56 64 82 76 72 92 83 36 43 51 46 46 44 59 54
94 94 97 96 94 95 89 96 86 85 91 94 84 83 81 78 76 63 71 72 75 79 94 98 97 98 96 90 93 50 68 54 55 59 54 39 36 40 47 51 53 53 51 48
93 94 93 98 95 94 91 92 95 96 100 98 97 95 81 74 81 82 88 85 71 76 80 92 98 99 88 90 87 64 52 42 51 55 44 43 39 40 43 43 46 48 48 50
92 94 93 94 98 95 94 98 95 87 97 100 100 83 86 77 83 88 87 88 86 89 95 98 98 98 94 98 80 67 54 50 53 54 46 49 49 44 45 50 50 52 51 52
92 94 96 96 98 98 97 99 97 88 92 99 98 95 92 90 92 95 93 89 92 98 100 100 98 99 99 98 92 88 54 55 62 57 48 47 50 48 48 53 54 53 54 50
92 94 94 97 96 96 99 100 99 99 95 97 100 98 96 97 94 96 96 94 97 98 98 99 99 99 98 96 87 52 51 49 49 50 50 49 50 50 49 54 54 54 50 49
92 93 96 97 96 98 99 99 99 96 96 97 98 98 97 99 99 99 99 99 100 99 100 100 99 90 99 96 82 63 54 54 52 50 52 61 56 59 54 52 51 52 50 50
87 90 92 92 92 94 97 98 96 98 97 98 98 98 95 99 98 96 99 99 99 98 98 91 85 92 94 92 66 59 57 55 55 55 53 51 55 54 53 51 51 51 52 52
89 92 90 92 96 98 99 94 96 98 97 100 99 96 94 91 91 91 94 98 96 94 93 84 75 88 91 73 66 62 59 56 60 59 57 57 57 57 55 53 55 57 57 57
92 90 95 100 99 93 94 95 98 100 100 100 97 95 94 93 94 95 95 96 94 95 79 74 89 76 68 63 62 54 55 56 58 78 74 67 66 61 58 58 59 61 62 64
98 100 100 99 93 98 100 100 100 100 99 98 95 95 93 94 96 95 96 96 94 94 83 80 80 80 69 66 64 58 56 56 59 61 61 61 66 68 64 63 63 63 64 70
96 96 95 99 100 100 99 98 97 98 96 95 93 95 95 97 98 96 97 95 94 93 73 86 84 71 75 69 68 64 59 59 60 58 62 61 61 66 71 70 77 74 71 75
98 99 100 100 100 98 96 96 96 96 94 94 94 96 94 97 96 97 95 95 94 76 88 81 67 79 72 72 70 68 61 61 62 64 62 64 68 66 72 78 68 73 78 75
100 100 97 95 93 91 93 91 94 95 96 93 89 95 91 95 96 95 93 93 82 92 93 81 75 82 77 72 69 71 73 68 77 87 82 82 79 77 76 83 86 88 86 84
100 100 96 95 92 92 93 93 87 95 89 90 95 94 90 96 94 91 93 93 91 82 76 82 84 90 89 89 85 85 87 90 91 88 93 94 92 87 85 88 89 84 84 84
98 92 94 87 91 96 91 92 95 89 90 89 88 93 94 93 91 90 90 93 83 80 91 88 89 95 94 95 94 94 93 93 94 92 93 92 95 96 94 93 93 93 90 90
95 95 83 87 89 90 87 78 84 81 86 93 92 91 92 93 92 92 79 82 84 86 87 84 87 90 93 93 93 93 93 93 93 93 93 94 94 97 96 95 90 96 93 97

GFSNW_sfc_rhum_258.txt.gz
RH
94 92 91 88 90 91 89 80 73 68 60 66 56 61 40 47 42 44 43 43 44 44 49 52 52 45 47 37 44 54 54 62 78 61 46 44 50 51 45 78 75 84 90 84
95 93 91 88 90 88 80 77 64 71 68 70 63 52 46 43 43 42 43 47 48 44 50 61 52 50 44 41 45 57 52 66 87 76 60 51 54 46 45 51 65 87 93 74
96 94 92 88 90 89 82 74 72 78 66 58 55 50 48 52 54 42 42 44 44 48 52 53 57 53 54 44 48 55 55 65 73 82 72 72 76 58 47 53 86 81 71 60
97 95 93 89 90 90 82 71 62 72 79 61 51 49 49 54 56 48 42 51 47 49 58 56 59 53 55 53 59 56 54 78 74 69 65 71 73 71 68 72 67 86 66 66
93 96 94 91 91 89 87 80 66 64 61 54 52 58 55 54 51 47 46 52 48 48 58 55 60 54 53 56 62 62 57 84 86 90 73 80 84 73 71 71 69 67 63 66
92 96 95 93 93 89 81 73 66 74 71 63 60 61 55 53 51 50 50 44 50 53 55 46 49 51 52 57 64 67 68 82 93 93 71 72 90 70 69 72 64 64 79 60
92 93 97 94 93 90 79 71 70 81 82 68 64 65 56 56 55 60 49 50 52 56 44 46 49 53 54 58 59 56 69 85 93 98 83 97 66 43 49 56 52 55 51 49
91 92 94 97 93 95 91 82 83 89 90 66 59 64 65 60 59 59 53 49 50 46 57 77 86 93 84 69 59 60 60 78 97 98 93 71 65 58 57 53 52 44 48 48
93 92 92 94 96 93 93 86 86 96 95 81 52 70 67 81 79 75 68 58 51 60 72 87 98 96 88 82 75 60 65 67 99 99 98 92 58 52 44 46 68 52 47 52
91 91 92 94 97 94 94 92 83 89 97 80 60 78 79 70 79 86 74 71 71 68 88 98 99 98 87 91 84 86 83 98 93 94 97 86 53 46 45 67 65 51 50 69
91 90 92 94 96 96 95 92 86 81 95 88 77 71 76 79 80 93 81 88 89 87 93 96 98 99 96 94 76 75 87 92 95 92 98 93 46 53 56 58 53 53 70 63
86 89 90 92 93 96 93 97 86 87 99 97 90 86 84 82 87 82 78 84 85 84 95 98 96 100 99 92 98 63 87 76 85 77 75 49 42 56 57 55 66 65 62 59
87 89 89 92 93 94 96 91 95 96 100 98 98 97 88 79 85 85 90 92 79 87 88 96 99 99 89 96 95 71 62 52 68 62 59 49 43 51 48 49 57 57 58 60
88 87 88 92 94 94 98 95 94 86 98 99 99 81 91 80 86 89 90 90 90 93 92 98 99 99 90 98 89 84 72 57 62 69 66 58 56 52 54 58 58 59 58 60
88 89 91 92 95 96 98 96 92 81 84 99 99 95 91 90 91 94 91 86 92 98 100 100 98 99 99 99 99 99 60 62 94 97 58 59 63 58 57 63 63 62 61 58
90 90 92 93 96 97 99 100 100 99 93 97 100 99 98 99 95 97 98 95 98 98 98 99 100 99 98 98 98 73 62 55 54 60 57 56 58 57 57 62 64 61 58 59
92 92 93 94 95 98 99 100 99 97 98 98 98 98 98 100 99 99 99 99 99 99 100 100 99 99 99 99 98 71 59 56 56 57 61 70 67 72 61 59 60 58 58 59
92 93 92 92 92 94 97 98 97 98 97 98 98 98 98 99 99 98 100 99 100 100 99 99 99 98 99 98 78 64 60 60 60 62 62 62 61 60 62 59 58 60 62 64
90 92 89 94 96 99 99 94 96 98 98 99 99 97 98 99 99 98 99 100 99 98 99 98 94 98 98 86 72 67 67 67 71 67 65 65 68 67 64 63 64 69 70 70
93 95 98 100 99 92 94 94 99 100 100 100 98 99 97 98 99 99 98 99 98 98 96 96 97 98 79 69 66 65 67 66 66 81 81 75 74 68 68 70 71 71 74 77
98 100 100 99 92 99 100 100 100 100 99 99 98 98 96 99 99 98 99 98 98 98 96 94 98 97 85 69 70 70 69 71 76 75 75 78 80 81 78 74 70 71 78 85
96 97 97 99 100 100 99 99 99 98 98 99 98 98 98 99 99 98 99 97 98 97 88 97 98 94 81 75 77 78 75 73 72 70 72 73 72 82 84 83 90 86 83 88
98 100 100 100 99 99 98 97 98 98 98 98 98 98 98 99 98 98 98 97 97 90 97 94 96 89 80 80 77 79 73 70 68 69 70 74 78 76 86 89 86 91 94 94
100 99 98 98 98 98 97 98 98 98 98 98 97 98 98 98 97 98 96 96 95 97 98 94 99 93 88 84 80 78 85 82 86 91 89 89 87 89 89 94 96 97 97 96
99 100 98 98 98 97 98 98 98 98 98 98 98 98 97 98 96 97 96 96 97 95 95 100 99 97 95 95 94 94 94 95 96 97 98 98 97 96 98 97 97 96 96 97
98 96 97 96 96 98 98 98 98 97 99 98 96 97 96 98 96 94 96 96 95 97 99 99 97 98 98 98 96 96 96 96 97 97 98 97 97 97 98 98 98 98 98 98
97 97 93 98 96 98 99 97 97 97 99 100 98 93 100 97 97 97 94 97 100 99 98 97 96 97 98 97 96 96 96 96 96 98 98 99 98 99 99 99 100 100 99 100

GFSNW_sfc_rhum_264.txt.gz
RH
90 88 87 89 96 90 87 94 90 71 66 62 78 71 65 52 45 48 46 50 45 51 55 60 58 52 53 45 48 57 63 65 79 66 56 52 58 59 53 78 72 91 92 80
87 90 88 88 94 88 89 85 92 77 72 74 84 68 49 45 50 48 49 49 49 50 57 60 57 52 52 48 52 59 59 75 86 81 72 59 58 54 52 65 76 83 88 72
87 87 91 91 91 94 88 92 86 96 81 81 69 63 56 50 55 49 50 51 50 55 61 63 63 60 57 49 54 60 61 76 75 69 73 72 70 59 56 59 82 84 72 68
83 86 87 91 93 95 85 99 91 82 98 82 64 57 58 58 56 53 50 57 54 56 66 69 65 66 62 57 61 59 64 83 85 83 78 82 80 74 59 64 60 80 67 73
79 85 89 90 93 94 100 89 90 80 80 71 71 65 66 62 57 55 57 64 57 58 64 60 70 65 65 62 73 61 66 84 89 88 83 87 91 82 78 73 64 62 61 67
78 81 88 90 92 95 99 97 90 76 80 78 79 80 59 51 55 56 50 50 61 62 60 62 71 60 58 62 67 69 71 90 95 93 86 84 91 72 72 81 84 76 88 72
78 82 83 88 90 94 98 95 92 92 86 84 82 68 66 61 61 50 58 54 59 60 51 60 65 63 65 66 69 66 79 87 92 98 85 97 66 49 69 71 71 74 71 58
72 80 82 85 88 93 98 93 99 95 92 55 58 76 76 76 73 64 64 59 60 50 70 86 89 93 88 78 66 68 72 82 97 97 96 82 66 61 62 73 62 59 67 57
73 79 81 84 85 90 97 94 94 98 94 80 61 62 68 84 85 81 74 68 66 75 86 92 98 98 92 98 85 65 68 80 90 98 99 95 71 58 50 49 75 51 56 60
71 75 85 80 86 89 96 93 89 98 99 83 78 80 76 78 85 87 78 72 74 80 94 98 98 98 85 92 92 98 88 94 96 95 96 84 70 50 48 75 66 55 57 64
72 76 81 83 83 87 96 95 91 99 98 87 74 70 82 90 82 87 85 77 84 93 93 94 97 97 95 89 84 93 92 95 97 95 99 96 53 51 57 59 62 67 71 73
75 73 75 80 81 81 91 97 85 92 99 93 76 75 76 71 73 81 80 75 87 80 95 99 97 98 99 92 98 80 81 72 85 80 76 58 44 57 58 55 63 71 66 67
75 73 72 80 81 84 91 97 93 98 99 97 98 97 94 87 86 75 81 91 80 85 87 95 97 98 95 98 98 88 78 67 78 73 71 56 47 57 56 62 60 64 62 63
73 74 74 84 86 87 90 98 91 98 97 100 99 87 93 91 91 90 84 84 91 89 93 98 99 97 91 97 86 84 78 68 79 88 76 67 59 53 55 61 60 62 60 59
73 73 78 82 87 86 92 96 95 94 97 100 99 98 94 93 95 96 92 90 92 97 99 100 98 97 97 99 98 98 75 81 86 79 72 81 81 61 56 60 63 60 61 64
75 74 81 83 83 82 98 99 97 92 98 100 100 98 98 98 96 97 97 95 96 95 97 99 99 96 95 99 98 80 70 59 67 75 85 90 87 58 57 62 62 60 62 61
76 75 83 84 85 95 98 98 99 96 99 100 99 99 99 100 98 99 99 97 100 98 100 100 99 99 97 99 90 76 60 64 79 88 91 95 88 74 60 58 63 63 64 66
77 80 82 85 83 91 99 98 94 97 98 100 99 98 98 99 99 98 99 99 99 99 99 99 97 99 99 98 96 74 81 93 96 96 96 94 77 66 64 61 60 66 70 74
81 82 85 98 98 100 98 90 92 98 97 99 98 97 97 99 98 98 99 99 99 99 99 98 96 98 98 97 94 93 95 97 95 95 92 84 73 66 63 61 63 72 77 77
85 97 98 100 99 90 91 95 100 100 100 100 98 99 97 99 98 98 98 99 98 98 97 98 98 97 95 96 98 97 97 95 94 94 93 78 70 65 66 66 70 72 78 82
98 100 100 99 91 98 100 99 99 99 98 99 99 98 97 99 98 98 99 98 98 97 97 96 97 96 93 96 96 97 96 96 95 78 63 64 68 73 75 75 74 77 81 87
97 99 99 100 100 99 99 98 98 98 97 98 98 98 98 99 99 98 99 97 98 97 96 97 96 94 95 95 95 95 95 94 82 68 72 70 69 74 79 81 87 87 87 91
98 100 100 99 99 98 98 97 98 98 98 98 98 98 98 99 98 98 98 96 96 97 96 96 95 94 94 95 93 90 75 71 72 74 72 74 80 77 84 91 89 94 97 98
100 99 97 98 98 97 96 97 98 98 98 98 98 98 98 98 97 98 95 97 96 96 96 96 96 96 94 82 75 79 86 80 83 90 88 88 87 91 89 93 96 96 97 99
98 96 96 96 96 97 98 98 98 98 99 99 98 98 97 97 96 96 96 96 96 96 96 96 96 96 93 93 92 92 92 93 95 95 96 96 96 95 97 97 96 95 96 96
96 93 96 96 97 97 97 97 98 97 98 99 98 97 96 96 97 96 96 96 96 96 97 98 97 96 96 96 94 94 94 94 96 96 96 96 96 95 96 97 97 97 96 96
94 97 96 96 97 97 96 96 95 94 98 100 95 91 98 97 94 96 97 97 97 98 99 98 98 96 97 96 96 96 96 96 96 97 96 98 97 97 97 97 97 98 97 97

GFSNW_sfc_rhum_267.txt.gz
RH
80 79 83 84 87 92 98 96 85 75 67 71 76 76 61 55 47 49 46 50 46 51 57 59 63 55 52 48 50 56 60 67 77 67 62 57 62 59 57 77 73 92 91 72
78 79 81 84 85 90 99 94 88 77 76 88 82 77 57 47 51 48 48 49 51 52 55 57 60 56 51 52 53 61 62 76 85 81 77 64 62 59 56 69 75 87 86 69
76 78 82 84 84 86 99 100 87 99 87 85 60 58 62 56 55 47 48 50 56 58 60 62 63 56 57 52 55 63 62 78 73 70 73 70 69 63 60 61 89 83 72 71
69 75 80 82 83 86 99 99 94 87 97 87 71 68 56 52 58 55 51 61 55 56 63 66 61 61 61 59 64 63 69 82 86 84 80 83 79 70 63 63 57 79 63 68
63 73 76 82 83 86 100 98 99 85 90 79 70 70 67 64 57 57 56 60 53 56 60 56 67 63 62 57 70 62 70 84 86 88 86 86 90 85 73 61 57 62 57 61
59 68 76 78 80 86 99 97 94 97 87 67 83 78 67 55 55 53 48 48 57 64 56 57 66 59 58 60 67 68 76 91 93 93 87 87 86 68 73 71 82 63 76 60
65 65 71 76 78 83 98 97 98 100 98 96 69 64 68 64 54 52 54 53 52 56 56 61 62 66 68 69 74 66 86 87 92 97 90 98 65 53 60 69 67 76 80 72
62 64 64 74 73 78 95 94 98 100 99 95 93 78 73 70 66 60 54 58 54 54 66 84 88 92 87 82 71 77 77 89 99 97 96 80 64 66 71 73 65 65 72 60
65 66 64 73 72 77 92 93 96 99 100 86 73 90 64 71 85 78 72 68 62 75 84 89 95 97 91 99 88 76 81 83 87 99 99 91 70 60 53 55 74 56 70 61
66 67 66 67 73 72 87 93 94 98 100 87 75 94 87 57 78 85 77 73 74 80 95 97 96 98 87 97 97 98 92 96 94 93 89 86 69 51 48 74 64 55 61 63
67 64 66 66 74 70 78 93 89 99 100 94 74 70 92 85 55 62 80 77 83 94 94 93 98 96 94 89 88 94 91 95 97 96 98 92 57 50 58 61 67 66 69 74
69 66 62 65 76 73 73 98 84 91 99 97 80 76 78 82 75 51 80 69 86 82 94 98 96 99 99 92 99 87 83 78 90 85 75 62 42 53 53 57 68 71 68 68
70 68 61 67 76 70 74 97 92 99 98 97 97 88 78 87 84 63 75 87 78 87 86 96 97 98 95 98 98 89 85 73 80 78 71 60 48 59 63 61 67 64 60 62
70 68 61 70 73 70 74 98 90 98 99 100 92 90 95 87 92 80 73 75 89 89 92 99 99 98 91 96 82 79 81 71 79 85 78 59 57 56 60 64 64 62 58 59
72 65 64 73 74 72 83 95 92 92 99 100 99 91 92 94 96 96 89 80 90 97 99 100 98 98 98 99 98 98 81 79 79 81 69 70 67 59 66 76 87 58 59 60
68 64 69 77 75 76 98 99 94 89 94 100 99 95 96 97 98 98 96 90 94 95 96 99 98 97 92 99 98 85 80 75 77 79 92 92 80 78 90 93 84 56 56 56
65 69 76 74 79 91 99 97 98 92 98 100 100 99 97 100 99 99 99 98 100 98 99 100 99 100 97 100 89 86 73 87 90 86 86 97 92 93 96 92 88 72 58 60
72 75 74 75 80 87 98 93 90 97 98 100 99 98 98 99 99 99 100 100 100 100 100 99 97 99 99 99 93 74 86 93 94 96 97 92 96 95 95 92 83 66 66 68
74 74 74 92 98 99 99 90 94 99 99 100 98 98 97 99 98 98 99 100 100 99 99 98 92 99 99 99 96 92 96 95 96 96 96 96 94 94 93 89 64 67 71 72
74 88 100 100 99 90 91 97 100 100 100 100 99 99 98 97 98 98 98 99 98 98 98 98 99 97 95 96 98 96 96 96 96 95 95 94 94 92 92 76 64 67 72 77
99 100 100 99 91 99 100 99 99 99 98 99 99 96 98 99 98 98 99 98 98 97 97 97 97 96 94 96 96 97 96 96 96 95 94 94 91 92 79 72 71 73 77 83
96 98 99 100 100 99 99 98 98 98 97 98 98 98 99 99 99 98 98 98 98 96 96 97 96 94 95 96 96 96 96 95 95 93 92 88 76 71 76 77 83 83 85 88
99 100 99 99 99 98 98 97 98 97 98 98 98 98 98 99 98 98 98 96 97 97 96 96 95 95 95 96 95 95 95 94 91 84 71 71 75 72 79 87 84 89 94 96
99 99 97 97 97 96 96 96 97 98 98 98 98 98 98 98 97 98 95 97 96 96 96 96 96 96 95 94 94 92 94 89 84 88 84 84 84 86 86 90 92 93 96 96
98 95 96 96 97 97 98 98 98 97 98 99 98 98 98 98 96 97 96 96 96 96 96 96 96 96 96 96 94 92 91 92 93 91 93 94 93 92 96 96 96 95 96 97
93 93 96 94 97 96 96 96 97 98 96 98 98 98 97 96 97 95 96 96 96 96 97 96 96 96 96 97 95 96 94 94 95 95 96 96 96 96 98 99 99 98 97 97
93 97 96 96 97 97 96 95 94 92 98 97 97 95 96 97 96 95 96 96 96 96 96 95 96 96 97 96 95 95 95 96 96 97 97 99 100 99 99 99 100 100 100 99

GFSNW_sfc_rhum_270.txt.gz
RH
61 66 73 74 75 81 89 98 99 75 74 77 84 69 63 54 48 52 47 46 42 50 56 62 65 57 52 50 50 54 60 68 83 68 65 59 63 60 60 77 75 92 92 71
62 63 66 73 74 77 97 97 94 78 80 91 85 80 63 53 54 51 50 50 49 50 56 57 61 61 55 55 53 57 59 72 83 82 79 70 65 66 61 72 74 86 84 65
63 62 64 68 74 75 95 99 99 95 97 79 80 63 60 57 57 43 48 48 54 62 65 63 60 60 59 54 55 64 59 77 69 59 67 74 72 66 64 60 88 83 71 68
58 61 63 62 70 74 94 97 98 91 99 95 87 74 59 58 56 56 47 58 57 58 63 67 64 62 61 59 64 69 68 79 85 82 82 71 69 69 66 62 54 74 53 60
58 62 61 63 63 75 96 99 99 95 98 95 97 94 90 61 54 58 60 60 58 54 43 47 60 61 58 55 73 67 75 82 85 86 85 86 89 83 70 60 54 59 58 64
65 64 64 62 58 73 94 90 97 99 97 91 95 96 90 65 57 55 43 49 50 61 54 57 65 55 52 53 65 70 80 90 92 93 87 89 91 73 82 69 75 59 72 52
66 68 65 62 58 62 94 91 97 100 96 97 94 92 92 96 87 58 54 51 50 55 55 58 61 61 65 68 80 69 86 87 90 97 92 97 71 68 65 66 61 71 71 78
64 67 67 61 57 57 88 92 97 100 98 94 86 84 88 81 81 91 58 55 50 53 66 88 96 90 85 82 78 82 82 88 97 96 96 81 68 72 67 73 67 61 66 74
68 68 69 68 62 59 76 91 95 99 100 86 76 79 83 99 98 95 71 70 64 65 78 85 90 95 90 99 91 83 84 87 88 98 96 94 70 67 58 59 76 59 67 71
71 65 66 68 68 63 75 87 90 95 99 85 83 88 85 81 96 98 81 75 79 80 86 94 98 87 87 97 98 98 97 98 92 93 94 86 72 54 53 69 56 62 74 63
69 68 67 67 70 67 75 87 89 96 100 91 79 78 90 92 94 98 92 81 83 95 92 83 97 93 93 94 90 95 89 94 94 95 98 90 62 53 63 58 68 62 72 66
75 72 68 66 69 68 67 92 80 85 98 97 83 77 68 70 64 94 98 97 90 80 86 98 94 98 97 89 95 89 88 79 87 81 75 70 45 63 54 58 64 71 74 72
73 73 72 67 69 69 67 90 94 94 95 95 97 92 75 68 75 70 97 95 85 84 81 93 95 92 94 98 96 87 88 75 82 81 76 70 52 63 63 66 70 67 66 62
72 70 71 69 69 67 64 91 92 94 99 99 85 89 97 80 75 79 87 87 84 84 90 97 99 97 89 96 81 79 81 74 83 86 82 65 57 55 61 68 65 66 63 57
74 79 84 76 70 63 75 89 90 85 98 99 96 90 74 86 96 97 97 98 95 96 98 100 97 97 98 98 97 97 83 80 81 75 65 66 69 54 63 66 68 66 64 66
78 81 79 72 64 67 90 100 93 84 92 99 97 91 95 97 97 97 97 97 96 95 97 96 99 92 89 98 97 85 82 82 80 76 90 83 79 82 77 90 88 87 91 92
80 77 66 66 70 90 97 97 96 95 96 100 99 99 97 98 99 100 100 100 99 96 98 100 99 99 95 99 92 87 78 87 90 89 87 96 88 98 92 92 93 93 94 93
67 70 70 73 73 79 91 86 87 88 99 100 98 97 96 99 99 99 99 100 100 100 100 100 99 99 99 99 91 91 97 96 97 99 96 93 96 94 95 91 94 94 93 87
73 73 74 85 94 98 97 88 92 98 98 99 99 99 96 99 98 98 99 100 99 100 100 99 98 99 100 96 94 94 97 97 99 96 95 92 92 93 94 94 95 91 92 76
74 82 98 100 98 89 89 97 100 100 100 100 99 98 98 96 98 98 98 99 98 98 98 99 99 96 96 95 97 97 96 94 89 95 96 94 94 93 94 94 93 90 77 72
98 100 100 99 93 99 100 99 99 98 98 98 98 98 97 99 98 98 98 98 98 97 97 98 97 95 95 95 96 97 97 97 97 95 94 94 90 94 93 94 87 71 71 77
98 99 99 100 100 99 99 98 97 98 98 97 99 98 98 99 99 98 98 98 98 96 97 97 96 94 95 96 96 96 96 96 96 95 94 95 94 94 93 85 78 78 81 84
99 100 99 99 98 97 96 96 97 96 97 98 98 98 98 99 99 98 98 96 97 97 96 96 95 95 96 96 96 95 96 95 94 94 93 92 93 86 78 84 81 85 90 91
99 98 96 97 96 96 97 96 97 97 98 97 98 98 98 98 97 98 96 97 96 96 96 96 96 96 96 96 95 94 95 94 94 95 94 92 85 86 85 89 89 90 93 93
97 95 96 96 96 97 97 97 97 98 97 98 98 98 98 98 97 97 96 96 96 96 96 96 96 96 96 96 95 95 95 95 95 93 93 94 92 92 95 94 93 93 94 95
92 95 96 93 96 92 91 94 96 97 95 97 98 98 97 96 96 94 96 96 97 96 97 96 96 96 96 96 96 96 96 95 95 94 94 93 93 95 99 97 97 96 95 96
94 97 96 96 98 98 93 90 91 84 97 97 97 94 96 97 94 95 95 97 96 96 95 95 96 96 96 96 95 95 94 95 96 95 96 97 97 96 96 97 100 100 100 99